• In Belarus
  • List of Countries
  • For 7 days
  • Water Temperature
  • Satellite Maps
  • Weather Map
  • Weather Widgets
  • user-avatar
    Login

    Hourly Weather Kapan

    Today, 20 February, Tuesday

    Time Temperature Precipitation Wind Pressure Humidity
    00:00 +3°C° 0 mm 1 mps 683 mmHg 73%
    01:00 +3°C° 0 mm 1 mps 683 mmHg 72%
    02:00 +3°C° 0 mm 1 mps 684 mmHg 71%
    03:00 +2°C° 0 mm 2 mps 683 mmHg 71%
    04:00 +2°C° 0 mm 2 mps 683 mmHg 71%
    05:00 +2°C° 0 mm 2 mps 684 mmHg 71%
    06:00 +1°C° 0 mm 2 mps 684 mmHg 71%
    07:00 +4°C° 0 mm 1 mps 684 mmHg 70%
    08:00 +5°C° 0 mm 1 mps 684 mmHg 68%
    09:00 +7°C° 0 mm 1 mps 684 mmHg 66%
    10:00 +8°C° 0 mm 1 mps 684 mmHg 65%
    11:00 +8°C° 0 mm 2 mps 684 mmHg 63%
    12:00 +9°C° 0 mm 2 mps 684 mmHg 62%
    13:00 +9°C° 0 mm 2 mps 683 mmHg 61%
    14:00 +9°C° 0 mm 2 mps 683 mmHg 60%
    15:00 +10°C° 0 mm 2 mps 682 mmHg 59%
    16:00 +8°C° 0 mm 2 mps 682 mmHg 63%
    17:00 +8°C° 0 mm 1 mps 682 mmHg 66%
    18:00 +7°C° 0 mm 1 mps 682 mmHg 70%
    19:00 +6°C° 0 mm 1 mps 682 mmHg 68%
    20:00 +6°C° 0 mm 1 mps 682 mmHg 67%
    21:00 +5°C° 0 mm 1 mps 682 mmHg 66%
    22:00 +5°C° 0 mm 1 mps 682 mmHg 66%
    23:00 +5°C° 0 mm 1 mps 682 mmHg 65%

    Tomorrow, 21 February, Wednesday

    Time Temperature Precipitation Wind Pressure Humidity
    00:00 +5°C° 0 mm 1 mps 682 mmHg 65%
    01:00 +5°C° 0 mm 1 mps 682 mmHg 67%
    02:00 +5°C° 0 mm 1 mps 682 mmHg 68%
    03:00 +4°C° 0 mm 1 mps 682 mmHg 69%
    04:00 +4°C° 0 mm 1 mps 682 mmHg 71%
    05:00 +4°C° 0 mm 1 mps 682 mmHg 72%
    06:00 +4°C° 0 mm 1 mps 682 mmHg 73%
    07:00 +5°C° 0 mm 1 mps 683 mmHg 72%
    08:00 +6°C° 0 mm 1 mps 683 mmHg 71%
    09:00 +7°C° 0 mm 1 mps 683 mmHg 70%
    10:00 +8°C° 0 mm 1 mps 683 mmHg 70%
    11:00 +8°C° 0 mm 1 mps 683 mmHg 70%
    12:00 +8°C° 0 mm 2 mps 683 mmHg 70%
    13:00 +8°C° 0 mm 2 mps 683 mmHg 70%
    14:00 +8°C° 0 mm 2 mps 682 mmHg 69%
    15:00 +8°C° 0 mm 2 mps 682 mmHg 69%
    16:00 +8°C° 0 mm 2 mps 682 mmHg 72%
    17:00 +8°C° 0 mm 1 mps 682 mmHg 76%
    18:00 +7°C° 0 mm 1 mps 682 mmHg 79%
    19:00 +7°C° 0 mm 1 mps 682 mmHg 80%
    20:00 +6°C° 0 mm 1 mps 682 mmHg 81%
    21:00 +6°C° 0 mm 1 mps 683 mmHg 82%
    22:00 +6°C° 0 mm 1 mps 683 mmHg 82%
    23:00 +6°C° 0 mm 1 mps 683 mmHg 82%

    Day after tomorrow, 22 February, Thursday

    Time Temperature Precipitation Wind Pressure Humidity
    00:00 +6°C° 0 mm 1 mps 682 mmHg 82%
    01:00 +6°C° 0 mm 1 mps 682 mmHg 82%
    02:00 +5°C° 0 mm 1 mps 682 mmHg 83%
    03:00 +5°C° 0 mm 1 mps 682 mmHg 83%
    04:00 +5°C° 0 mm 1 mps 682 mmHg 83%
    05:00 +5°C° 0 mm 1 mps 682 mmHg 83%
    06:00 +5°C° 0 mm 1 mps 682 mmHg 82%
    07:00 +5°C° 0 mm 1 mps 682 mmHg 79%
    08:00 +6°C° 0 mm 1 mps 682 mmHg 76%
    09:00 +7°C° 0 mm 1 mps 683 mmHg 73%
    10:00 +8°C° 0 mm 1 mps 682 mmHg 71%
    11:00 +9°C° 0 mm 1 mps 682 mmHg 68%
    12:00 +9°C° 0 mm 1 mps 682 mmHg 66%
    13:00 +9°C° 0.1 mm 1 mps 681 mmHg 66%
    14:00 +10°C° 0.1 mm 1 mps 681 mmHg 66%
    15:00 +10°C° 0.1 mm 1 mps 681 mmHg 65%
    16:00 +9°C° 0 mm 1 mps 681 mmHg 69%
    17:00 +8°C° 0 mm 1 mps 681 mmHg 72%
    18:00 +8°C° 0 mm 1 mps 680 mmHg 75%
    19:00 +7°C° 0 mm 1 mps 681 mmHg 76%
    20:00 +6°C° 0 mm 0 mps 681 mmHg 77%
    21:00 +6°C° 0 mm 0 mps 681 mmHg 77%
    22:00 +5°C° 0 mm 0 mps 681 mmHg 77%
    23:00 +5°C° 0 mm 0 mps 681 mmHg 77%

    23 February, Friday

    Time Temperature Precipitation Wind Pressure Humidity
    00:00 +5°C° 0 mm 0 mps 680 mmHg 77%
    01:00 +5°C° 0 mm 0 mps 680 mmHg 78%
    02:00 +4°C° 0 mm 0 mps 680 mmHg 79%
    03:00 +4°C° 0 mm 0 mps 680 mmHg 81%
    04:00 +4°C° 0 mm 0 mps 680 mmHg 81%
    05:00 +4°C° 0 mm 0 mps 680 mmHg 80%
    06:00 +4°C° 0 mm 0 mps 681 mmHg 80%
    07:00 +5°C° 0 mm 0 mps 681 mmHg 77%
    08:00 +5°C° 0 mm 0 mps 681 mmHg 74%
    09:00 +6°C° 0 mm 0 mps 682 mmHg 72%
    10:00 +8°C° 0 mm 1 mps 681 mmHg 69%
    11:00 +9°C° 0 mm 1 mps 681 mmHg 66%
    12:00 +9°C° 0 mm 1 mps 681 mmHg 63%
    13:00 +10°C° 0 mm 1 mps 681 mmHg 61%
    14:00 +10°C° 0 mm 1 mps 680 mmHg 59%
    15:00 +9°C° 0 mm 2 mps 680 mmHg 58%
    16:00 +9°C° 0 mm 1 mps 680 mmHg 61%
    17:00 +8°C° 0 mm 1 mps 680 mmHg 65%
    18:00 +7°C° 0 mm 1 mps 680 mmHg 68%
    19:00 +7°C° 0 mm 1 mps 680 mmHg 69%
    20:00 +7°C° 0 mm 1 mps 680 mmHg 70%
    21:00 +5°C° 0 mm 0 mps 681 mmHg 70%
    22:00 +6°C° 0 mm 1 mps 681 mmHg 69%
    23:00 +6°C° 0 mm 1 mps 681 mmHg 67%

    24 February, Saturday

    Time Temperature Precipitation Wind Pressure Humidity
    00:00 +6°C° 0 mm 1 mps 680 mmHg 65%
    01:00 +5°C° 0 mm 1 mps 680 mmHg 63%
    02:00 +5°C° 0 mm 1 mps 680 mmHg 62%
    03:00 +5°C° 0 mm 1 mps 680 mmHg 60%
    04:00 +5°C° 0 mm 1 mps 680 mmHg 60%
    05:00 +5°C° 0 mm 1 mps 680 mmHg 60%
    06:00 +5°C° 0 mm 1 mps 681 mmHg 60%
    07:00 +6°C° 0 mm 1 mps 681 mmHg 57%
    08:00 +7°C° 0 mm 1 mps 681 mmHg 55%
    09:00 +8°C° 0 mm 1 mps 682 mmHg 52%
    10:00 +9°C° 0 mm 1 mps 682 mmHg 50%
    11:00 +10°C° 0 mm 1 mps 682 mmHg 48%
    12:00 +10°C° 0 mm 2 mps 681 mmHg 46%
    13:00 +10°C° 0 mm 2 mps 681 mmHg 45%
    14:00 +12°C° 0 mm 2 mps 681 mmHg 45%
    15:00 +12°C° 0 mm 2 mps 680 mmHg 44%
    16:00 +10°C° 0 mm 2 mps 680 mmHg 49%
    17:00 +10°C° 0 mm 1 mps 680 mmHg 53%
    18:00 +9°C° 0 mm 1 mps 680 mmHg 58%
    19:00 +8°C° 0 mm 1 mps 680 mmHg 59%
    20:00 +8°C° 0 mm 1 mps 681 mmHg 61%
    21:00 +7°C° 0 mm 1 mps 681 mmHg 62%
    22:00 +7°C° 0 mm 1 mps 681 mmHg 61%
    23:00 +7°C° 0 mm 1 mps 681 mmHg 60%

    25 February, Sunday

    Time Temperature Precipitation Wind Pressure Humidity
    00:00 +5°C° 0 mm 2 mps 681 mmHg 58%
    01:00 +5°C° 0 mm 2 mps 681 mmHg 58%
    02:00 +5°C° 0 mm 2 mps 681 mmHg 59%
    03:00 +5°C° 0 mm 2 mps 680 mmHg 59%
    04:00 +5°C° 0 mm 2 mps 681 mmHg 59%
    05:00 +5°C° 0 mm 2 mps 681 mmHg 60%
    06:00 +4°C° 0 mm 2 mps 681 mmHg 60%
    07:00 +6°C° 0 mm 2 mps 681 mmHg 57%
    08:00 +7°C° 0 mm 2 mps 681 mmHg 54%
    09:00 +10°C° 0 mm 1 mps 681 mmHg 51%
    10:00 +10°C° 0 mm 2 mps 681 mmHg 49%
    11:00 +12°C° 0 mm 2 mps 681 mmHg 47%
    12:00 +13°C° 0 mm 2 mps 681 mmHg 45%
    13:00 +13°C° 0 mm 2 mps 680 mmHg 44%
    14:00 +13°C° 0 mm 2 mps 680 mmHg 44%
    15:00 +13°C° 0 mm 2 mps 680 mmHg 44%
    16:00 +12°C° 0 mm 2 mps 680 mmHg 48%
    17:00 +10°C° 0 mm 2 mps 680 mmHg 53%
    18:00 +10°C° 0 mm 1 mps 679 mmHg 58%
    19:00 +9°C° 0 mm 1 mps 680 mmHg 57%
    20:00 +8°C° 0 mm 2 mps 680 mmHg 57%
    21:00 +8°C° 0 mm 2 mps 680 mmHg 57%
    22:00 +8°C° 0 mm 2 mps 680 mmHg 56%
    23:00 +7°C° 0 mm 2 mps 680 mmHg 56%
    Show more